Time,TemperatureF,DewpointF,PressureIn,WindDirection,WindDirectionDegrees,WindSpeedMPH,WindSpeedGustMPH,Humidity,HourlyPrecipIn,Conditions,Clouds,dailyrainin,SoftwareType,DateUTC
2013-09-28 00:01:00,73.7,61.7,29.73,ESE,105,0.0,12.0,66,0.00,,SKC,0.00,VWS V14.01,2013-09-28 05:01:00,
2013-09-28 00:06:00,73.7,61.7,29.73,ESE,108,5.0,13.0,66,0.00,,SKC,0.00,VWS V14.01,2013-09-28 05:06:00,
2013-09-28 00:11:00,73.5,61.5,29.73,East,100,8.0,13.0,66,0.00,,SKC,0.00,VWS V14.01,2013-09-28 05:11:00,
2013-09-28 00:16:00,73.5,61.5,29.73,East,86,5.0,13.0,66,0.00,,SKC,0.00,VWS V14.01,2013-09-28 05:16:00,
2013-09-28 00:21:00,73.5,61.5,29.72,East,99,8.0,14.0,66,0.00,,SKC,0.00,VWS V14.01,2013-09-28 05:21:00,
2013-09-28 00:26:00,73.4,61.4,29.72,ESE,119,9.0,16.0,66,0.00,,SKC,0.00,VWS V14.01,2013-09-28 05:26:00,
2013-09-28 00:31:00,73.2,61.2,29.72,East,100,7.0,13.0,66,0.00,,SKC,0.00,VWS V14.01,2013-09-28 05:31:00,
2013-09-28 00:36:00,73.1,61.5,29.72,ESE,117,8.0,13.0,67,0.00,,SKC,0.00,VWS V14.01,2013-09-28 05:36:00,
2013-09-28 00:41:00,73.0,61.4,29.72,ESE,121,2.0,16.0,67,0.00,,SKC,0.00,VWS V14.01,2013-09-28 05:41:00,
2013-09-28 00:46:00,72.8,61.2,29.71,East,80,3.0,16.0,67,0.00,,SKC,0.00,VWS V14.01,2013-09-28 05:46:00,
2013-09-28 00:51:00,72.6,61.0,29.71,ESE,106,4.0,18.0,67,0.00,,SKC,0.00,VWS V14.01,2013-09-28 05:51:00,
2013-09-28 00:56:00,72.3,61.2,29.71,ESE,104,5.0,18.0,68,0.00,,SKC,0.00,VWS V14.01,2013-09-28 05:56:00,
2013-09-28 01:01:00,72.1,61.0,29.71,ESE,111,13.0,13.0,68,0.00,,SKC,0.00,VWS V14.01,2013-09-28 06:01:00,
2013-09-28 01:06:00,72.0,60.9,29.71,ESE,113,6.0,15.0,68,0.00,,SKC,0.00,VWS V14.01,2013-09-28 06:06:00,
2013-09-28 01:11:00,71.7,60.6,29.70,East,97,1.0,15.0,68,0.00,,SKC,0.00,VWS V14.01,2013-09-28 06:11:00,
2013-09-28 01:16:00,71.6,60.5,29.70,SE,126,6.0,15.0,68,0.00,,SKC,0.00,VWS V14.01,2013-09-28 06:16:00,
2013-09-28 01:21:00,71.5,60.4,29.70,East,79,8.0,15.0,68,0.00,,SKC,0.00,VWS V14.01,2013-09-28 06:21:00,
2013-09-28 01:26:00,71.3,60.2,29.70,ESE,113,7.0,15.0,68,0.00,,SKC,0.00,VWS V14.01,2013-09-28 06:26:00,
2013-09-28 01:31:00,71.3,60.2,29.70,ESE,106,6.0,11.0,68,0.00,,SKC,0.00,VWS V14.01,2013-09-28 06:31:00,
2013-09-28 01:36:00,71.2,60.5,29.70,East,97,2.0,13.0,69,0.00,,SKC,0.00,VWS V14.01,2013-09-28 06:36:00,
2013-09-28 01:41:00,71.0,60.3,29.70,SE,143,6.0,13.0,69,0.00,,SKC,0.00,VWS V14.01,2013-09-28 06:41:00,
2013-09-28 01:46:00,70.9,60.2,29.70,ESE,121,8.0,13.0,69,0.00,,SKC,0.00,VWS V14.01,2013-09-28 06:46:00,
2013-09-28 01:51:00,70.8,59.7,29.70,SE,130,7.0,13.0,68,0.00,,SKC,0.00,VWS V14.01,2013-09-28 06:51:00,
2013-09-28 01:56:00,70.7,60.0,29.70,ESE,110,6.0,13.0,69,0.00,,SKC,0.00,VWS V14.01,2013-09-28 06:56:00,
2013-09-28 02:01:00,70.5,59.8,29.70,SE,125,11.0,16.0,69,0.00,,SKC,0.00,VWS V14.01,2013-09-28 07:01:00,
2013-09-28 02:06:00,70.4,59.8,29.70,ESE,104,5.0,16.0,69,0.00,,SKC,0.00,VWS V14.01,2013-09-28 07:06:00,
2013-09-28 02:11:00,70.4,59.8,29.70,ESE,117,5.0,16.0,69,0.00,,SKC,0.00,VWS V14.01,2013-09-28 07:11:00,
2013-09-28 02:16:00,70.3,59.7,29.70,ESE,121,2.0,16.0,69,0.00,,SKC,0.00,VWS V14.01,2013-09-28 07:16:00,
2013-09-28 02:21:00,70.3,59.7,29.70,East,97,9.0,18.0,69,0.00,,SKC,0.00,VWS V14.01,2013-09-28 07:21:00,
2013-09-28 02:26:00,70.3,59.7,29.70,WNW,298,2.0,18.0,69,0.00,,SKC,0.00,VWS V14.01,2013-09-28 07:26:00,
2013-09-28 02:31:00,70.2,59.6,29.70,East,98,7.0,9.0,69,0.00,,SKC,0.00,VWS V14.01,2013-09-28 07:31:00,
2013-09-28 02:36:00,70.1,59.5,29.70,ESE,103,6.0,9.0,69,0.00,,SKC,0.00,VWS V14.01,2013-09-28 07:36:00,
2013-09-28 02:41:00,70.0,59.4,29.70,East,100,5.0,11.0,69,0.00,,SKC,0.00,VWS V14.01,2013-09-28 07:41:00,
2013-09-28 02:46:00,69.8,59.2,29.70,ESE,107,7.0,11.0,69,0.00,,SKC,0.00,VWS V14.01,2013-09-28 07:46:00,
2013-09-28 02:51:00,69.7,59.5,29.69,ESE,107,2.0,12.0,70,0.00,,SKC,0.00,VWS V14.01,2013-09-28 07:51:00,
2013-09-28 02:56:00,69.5,59.3,29.68,ESE,120,6.0,12.0,70,0.00,,SKC,0.00,VWS V14.01,2013-09-28 07:56:00,
2013-09-28 03:01:00,69.4,59.2,29.68,ESE,113,7.0,9.0,70,0.00,,SKC,0.00,VWS V14.01,2013-09-28 08:01:00,
2013-09-28 03:06:00,69.2,59.4,29.68,SE,127,8.0,11.0,71,0.00,,SKC,0.00,VWS V14.01,2013-09-28 08:06:00,
2013-09-28 03:11:00,69.0,59.2,29.68,ESE,111,8.0,11.0,71,0.00,,SKC,0.00,VWS V14.01,2013-09-28 08:11:00,
2013-09-28 03:16:00,68.9,59.1,29.68,ESE,105,5.0,12.0,71,0.00,,SKC,0.00,VWS V14.01,2013-09-28 08:16:00,
2013-09-28 03:21:00,68.8,59.0,29.68,ENE,68,6.0,12.0,71,0.00,,SKC,0.00,VWS V14.01,2013-09-28 08:21:00,
2013-09-28 03:26:00,68.6,59.2,29.68,ESE,113,5.0,12.0,72,0.00,,SKC,0.00,VWS V14.01,2013-09-28 08:26:00,
2013-09-28 03:31:00,68.5,59.1,29.67,ESE,123,6.0,9.0,72,0.00,,SKC,0.00,VWS V14.01,2013-09-28 08:31:00,
2013-09-28 03:36:00,68.4,59.0,29.67,ESE,107,8.0,11.0,72,0.00,,SKC,0.00,VWS V14.01,2013-09-28 08:36:00,
2013-09-28 03:41:00,68.2,59.2,29.67,ESE,105,8.0,11.0,73,0.00,,SKC,0.00,VWS V14.01,2013-09-28 08:41:00,
2013-09-28 03:46:00,68.1,59.1,29.67,ESE,110,7.0,12.0,73,0.00,,SKC,0.00,VWS V14.01,2013-09-28 08:46:00,
2013-09-28 03:51:00,68.1,59.1,29.67,SE,132,8.0,12.0,73,0.00,,SKC,0.00,VWS V14.01,2013-09-28 08:51:00,
2013-09-28 03:56:00,68.1,59.1,29.67,ESE,113,6.0,12.0,73,0.00,,SKC,0.00,VWS V14.01,2013-09-28 08:56:00,
2013-09-28 04:01:00,68.1,59.1,29.67,East,99,5.0,8.0,73,0.00,,SKC,0.00,VWS V14.01,2013-09-28 09:01:00,
2013-09-28 04:06:00,68.1,59.1,29.66,ESE,121,5.0,12.0,73,0.00,,SKC,0.00,VWS V14.01,2013-09-28 09:06:00,
2013-09-28 04:11:00,68.2,59.2,29.66,East,98,11.0,12.0,73,0.00,,SKC,0.00,VWS V14.01,2013-09-28 09:11:00,
2013-09-28 04:16:00,68.1,59.1,29.66,SSE,149,7.0,14.0,73,0.00,,SKC,0.00,VWS V14.01,2013-09-28 09:16:00,
2013-09-28 04:21:00,68.0,59.4,29.66,East,90,9.0,14.0,74,0.00,,SKC,0.00,VWS V14.01,2013-09-28 09:21:00,
2013-09-28 04:26:00,68.0,59.4,29.66,ESE,103,7.0,14.0,74,0.00,,SKC,0.00,VWS V14.01,2013-09-28 09:26:00,
2013-09-28 04:31:00,67.9,59.3,29.66,East,83,4.0,11.0,74,0.00,,SKC,0.00,VWS V14.01,2013-09-28 09:31:00,
2013-09-28 04:36:00,67.8,59.2,29.66,SE,124,11.0,12.0,74,0.00,,SKC,0.00,VWS V14.01,2013-09-28 09:36:00,
2013-09-28 04:41:00,67.7,59.1,29.66,East,98,5.0,13.0,74,0.00,,SKC,0.00,VWS V14.01,2013-09-28 09:41:00,
2013-09-28 04:46:00,67.6,59.0,29.66,SE,128,9.0,13.0,74,0.00,,SKC,0.00,VWS V14.01,2013-09-28 09:46:00,
2013-09-28 04:51:00,67.6,59.0,29.66,ESE,105,4.0,13.0,74,0.00,,SKC,0.00,VWS V14.01,2013-09-28 09:51:00,
2013-09-28 04:56:00,67.5,59.3,29.65,East,86,8.0,13.0,75,0.00,,SKC,0.00,VWS V14.01,2013-09-28 09:56:00,
2013-09-28 05:01:00,67.4,59.2,29.65,SE,132,2.0,11.0,75,0.00,,SKC,0.00,VWS V14.01,2013-09-28 10:01:00,
2013-09-28 05:06:00,67.4,59.2,29.65,SE,130,9.0,15.0,75,0.00,,SKC,0.00,VWS V14.01,2013-09-28 10:06:00,
2013-09-28 05:11:00,67.2,59.0,29.65,East,87,7.0,15.0,75,0.00,,SKC,0.00,VWS V14.01,2013-09-28 10:11:00,
2013-09-28 05:16:00,67.1,58.9,29.64,East,98,8.0,15.0,75,0.00,,SKC,0.00,VWS V14.01,2013-09-28 10:16:00,
2013-09-28 05:21:00,67.0,58.8,29.64,ESE,110,5.0,15.0,75,0.00,,SKC,0.00,VWS V14.01,2013-09-28 10:21:00,
2013-09-28 05:26:00,66.8,59.0,29.64,ESE,111,7.0,15.0,76,0.00,,SKC,0.00,VWS V14.01,2013-09-28 10:26:00,
2013-09-28 05:31:00,66.7,58.9,29.64,ESE,111,8.0,15.0,76,0.00,,SKC,0.00,VWS V14.01,2013-09-28 10:31:00,
2013-09-28 05:36:00,66.6,58.8,29.64,ESE,121,12.0,15.0,76,0.00,,SKC,0.00,VWS V14.01,2013-09-28 10:36:00,
2013-09-28 05:41:00,66.5,59.1,29.64,East,84,7.0,15.0,77,0.00,,SKC,0.00,VWS V14.01,2013-09-28 10:41:00,
2013-09-28 05:46:00,66.4,59.0,29.64,ESE,121,6.0,15.0,77,0.00,,SKC,0.00,VWS V14.01,2013-09-28 10:46:00,
2013-09-28 05:51:00,66.3,58.9,29.64,SE,128,4.0,15.0,77,0.00,,SKC,0.00,VWS V14.01,2013-09-28 10:51:00,
2013-09-28 05:56:00,66.3,58.9,29.63,East,92,7.0,15.0,77,0.00,,SKC,0.00,VWS V14.01,2013-09-28 10:56:00,
2013-09-28 06:01:00,66.2,58.8,29.63,ESE,121,5.0,9.0,77,0.00,,SKC,0.00,VWS V14.01,2013-09-28 11:01:00,
2013-09-28 06:06:00,66.1,58.7,29.63,ESE,113,6.0,11.0,77,0.00,,SKC,0.00,VWS V14.01,2013-09-28 11:06:00,
2013-09-28 06:11:00,65.9,58.9,29.62,ESE,109,5.0,11.0,78,0.00,,SKC,0.00,VWS V14.01,2013-09-28 11:11:00,
2013-09-28 06:16:00,65.8,58.8,29.62,ESE,109,9.0,12.0,78,0.00,,SKC,0.00,VWS V14.01,2013-09-28 11:16:00,
2013-09-28 06:21:00,65.7,58.7,29.62,ESE,102,8.0,13.0,78,0.00,,SKC,0.00,VWS V14.01,2013-09-28 11:21:00,
2013-09-28 06:26:00,65.7,58.7,29.62,East,82,3.0,15.0,78,0.00,,SKC,0.00,VWS V14.01,2013-09-28 11:26:00,
2013-09-28 06:31:00,65.6,58.6,29.61,ESE,110,8.0,15.0,78,0.00,,SKC,0.00,VWS V14.01,2013-09-28 11:31:00,
2013-09-28 06:36:00,65.6,59.0,29.61,SE,129,6.0,-999.0,78,-99.99,,,0.00,weatherlink.com 1.10,2013-09-28 11:36:00,
2013-09-28 06:41:00,65.6,58.6,29.61,East,91,8.0,15.0,78,0.00,,SKC,0.00,VWS V14.01,2013-09-28 11:41:00,
2013-09-28 06:46:00,65.6,58.6,29.61,East,95,13.0,15.0,78,0.00,,SKC,0.00,VWS V14.01,2013-09-28 11:46:00,
2013-09-28 06:51:00,65.7,58.7,29.61,SE,126,11.0,15.0,78,0.00,,SKC,0.00,VWS V14.01,2013-09-28 11:51:00,
2013-09-28 06:56:00,65.8,58.8,29.61,ESE,106,8.0,15.0,78,0.00,,SKC,0.00,VWS V14.01,2013-09-28 11:56:00,
2013-09-28 07:01:00,65.7,58.7,29.60,ESE,106,7.0,15.0,78,0.00,,SKC,0.00,VWS V14.01,2013-09-28 12:01:00,
2013-09-28 07:06:00,65.7,58.7,29.60,East,98,6.0,16.0,78,0.00,,SKC,0.00,VWS V14.01,2013-09-28 12:06:00,
2013-09-28 07:11:00,65.8,58.8,29.60,ESE,117,6.0,16.0,78,0.00,,SKC,0.00,VWS V14.01,2013-09-28 12:11:00,
2013-09-28 07:16:00,65.8,58.8,29.60,ENE,65,6.0,16.0,78,0.00,,SKC,0.00,VWS V14.01,2013-09-28 12:16:00,
2013-09-28 07:21:00,65.8,58.8,29.60,ESE,104,6.0,19.0,78,0.00,,SKC,0.00,VWS V14.01,2013-09-28 12:21:00,
2013-09-28 07:26:00,65.8,58.8,29.60,East,86,10.0,19.0,78,0.00,,SKC,0.00,VWS V14.01,2013-09-28 12:26:00,
2013-09-28 07:31:00,65.9,58.9,29.59,ESE,121,16.0,19.0,78,0.00,,SKC,0.00,VWS V14.01,2013-09-28 12:31:00,
2013-09-28 07:36:00,66.0,59.0,29.60,ESE,120,7.0,19.0,78,0.00,,SKC,0.00,VWS V14.01,2013-09-28 12:36:00,
2013-09-28 07:41:00,66.1,59.0,29.59,East,92,6.0,19.0,78,0.00,,SKC,0.00,VWS V14.01,2013-09-28 12:41:00,
2013-09-28 07:46:00,66.1,59.0,29.59,East,92,4.0,19.0,78,0.00,,SKC,0.00,VWS V14.01,2013-09-28 12:46:00,
2013-09-28 07:51:00,66.2,59.2,29.59,East,87,7.0,19.0,78,0.00,,SKC,0.00,VWS V14.01,2013-09-28 12:51:00,
2013-09-28 07:56:00,66.3,59.2,29.59,ESE,123,5.0,19.0,78,0.00,,SKC,0.00,VWS V14.01,2013-09-28 12:56:00,
2013-09-28 08:01:00,66.4,59.0,29.59,ESE,107,8.0,14.0,77,0.00,,SKC,0.00,VWS V14.01,2013-09-28 13:01:00,
2013-09-28 08:06:00,66.4,59.3,29.58,ESE,111,9.0,14.0,78,0.00,,SKC,0.00,VWS V14.01,2013-09-28 13:06:00,
2013-09-28 08:11:00,66.5,59.1,29.58,East,92,7.0,19.0,77,0.00,,SKC,0.00,VWS V14.01,2013-09-28 13:11:00,
2013-09-28 08:16:00,66.5,59.4,29.58,ESE,121,11.0,19.0,78,0.00,,SKC,0.00,VWS V14.01,2013-09-28 13:16:00,
2013-09-28 08:21:00,66.5,59.4,29.58,SE,130,6.0,19.0,78,0.00,,SKC,0.00,VWS V14.01,2013-09-28 13:21:00,
2013-09-28 08:26:00,66.5,59.4,29.58,SE,130,7.0,19.0,78,0.00,,SKC,0.00,VWS V14.01,2013-09-28 13:26:00,
2013-09-28 08:31:00,66.6,59.5,29.58,ESE,113,8.0,18.0,78,0.00,,SKC,0.00,VWS V14.01,2013-09-28 13:31:00,
2013-09-28 08:36:00,66.6,59.5,29.58,ENE,71,8.0,18.0,78,0.00,,SKC,0.00,VWS V14.01,2013-09-28 13:36:00,
2013-09-28 08:40:00,66.6,59.5,29.57,SE,142,8.0,18.0,78,0.00,,SKC,0.00,VWS V14.01,2013-09-28 13:40:00,
2013-09-28 08:45:00,66.6,59.5,29.57,East,80,8.0,18.0,78,0.00,,SKC,0.00,VWS V14.01,2013-09-28 13:45:00,
2013-09-28 08:50:00,66.6,59.5,29.58,ESE,113,4.0,18.0,78,0.00,,SKC,0.00,VWS V14.01,2013-09-28 13:50:00,
2013-09-28 08:55:00,66.6,59.5,29.57,ESE,114,1.0,18.0,78,0.00,,SKC,0.00,VWS V14.01,2013-09-28 13:55:00,
2013-09-28 09:00:00,66.6,59.5,29.57,East,93,8.0,16.0,78,0.00,,SKC,0.00,VWS V14.01,2013-09-28 14:00:00,
2013-09-28 09:05:00,66.7,59.6,29.56,East,95,0.0,16.0,78,0.00,,SKC,0.00,VWS V14.01,2013-09-28 14:05:00,
2013-09-28 09:10:00,66.7,59.6,29.56,ESE,107,2.0,16.0,78,0.00,,SKC,0.00,VWS V14.01,2013-09-28 14:10:00,
2013-09-28 09:15:00,66.8,59.7,29.56,ESE,103,7.0,16.0,78,0.00,,SKC,0.00,VWS V14.01,2013-09-28 14:15:00,
2013-09-28 09:20:00,66.6,60.2,29.56,ESE,116,1.0,16.0,80,0.00,,SKC,0.00,VWS V14.01,2013-09-28 14:20:00,
2013-09-28 09:25:00,66.0,61.0,29.56,ESE,117,5.0,16.0,84,0.01,,SKC,0.01,VWS V14.01,2013-09-28 14:25:00,
2013-09-28 09:30:00,65.3,60.7,29.56,East,94,6.0,7.0,85,0.01,,SKC,0.01,VWS V14.01,2013-09-28 14:30:00,
2013-09-28 09:35:00,64.9,60.9,29.55,ESE,106,2.0,11.0,87,0.01,,SKC,0.01,VWS V14.01,2013-09-28 14:35:00,
2013-09-28 09:40:00,64.7,61.1,29.55,ESE,104,5.0,11.0,88,0.01,,SKC,0.01,VWS V14.01,2013-09-28 14:40:00,
2013-09-28 09:45:00,64.7,61.4,29.55,ESE,112,6.0,11.0,89,0.01,,SKC,0.01,VWS V14.01,2013-09-28 14:45:00,
2013-09-28 09:50:00,64.6,61.3,29.55,ESE,110,6.0,11.0,89,0.01,,SKC,0.01,VWS V14.01,2013-09-28 14:50:00,
2013-09-28 09:55:00,64.5,61.2,29.55,ENE,66,3.0,11.0,89,0.01,,SKC,0.01,VWS V14.01,2013-09-28 14:55:00,
2013-09-28 10:00:00,64.4,61.4,29.55,ESE,119,5.0,9.0,90,0.02,,SKC,0.02,VWS V14.01,2013-09-28 15:00:00,
2013-09-28 10:05:00,64.2,61.5,29.54,ESE,115,7.0,11.0,91,0.04,,SKC,0.04,VWS V14.01,2013-09-28 15:05:00,
2013-09-28 10:10:00,64.1,61.4,29.55,East,95,4.0,11.0,91,0.05,,SKC,0.05,VWS V14.01,2013-09-28 15:10:00,
2013-09-28 10:15:00,64.0,61.6,29.54,ESE,108,5.0,11.0,92,0.05,,SKC,0.05,VWS V14.01,2013-09-28 15:15:00,
2013-09-28 10:20:00,63.9,61.8,29.54,ESE,108,8.0,11.0,93,0.08,,SKC,0.08,VWS V14.01,2013-09-28 15:20:00,
2013-09-28 10:25:00,63.9,61.8,29.53,ESE,117,5.0,11.0,93,0.08,,SKC,0.08,VWS V14.01,2013-09-28 15:25:00,
2013-09-28 10:30:00,63.8,61.7,29.54,East,94,6.0,6.0,93,0.08,,SKC,0.09,VWS V14.01,2013-09-28 15:30:00,
2013-09-28 10:35:00,63.8,62.0,29.53,East,89,0.0,12.0,94,0.08,,SKC,0.09,VWS V14.01,2013-09-28 15:35:00,
2013-09-28 10:40:00,63.8,62.0,29.53,ESE,105,2.0,12.0,94,0.08,,SKC,0.09,VWS V14.01,2013-09-28 15:40:00,
2013-09-28 10:45:00,63.7,62.0,29.53,East,88,3.0,12.0,94,0.09,,SKC,0.10,VWS V14.01,2013-09-28 15:45:00,
2013-09-28 10:50:00,63.6,61.8,29.54,ESE,105,6.0,12.0,94,0.11,,SKC,0.12,VWS V14.01,2013-09-28 15:50:00,
2013-09-28 10:55:00,63.6,61.8,29.53,ESE,102,7.0,12.0,94,0.14,,SKC,0.15,VWS V14.01,2013-09-28 15:55:00,
2013-09-28 11:00:00,63.6,62.2,29.53,ENE,57,7.0,11.0,95,0.15,,SKC,0.17,VWS V14.01,2013-09-28 16:00:00,
2013-09-28 11:05:00,63.6,62.2,29.53,SE,136,12.0,12.0,95,0.15,,SKC,0.17,VWS V14.01,2013-09-28 16:05:00,
2013-09-28 11:10:00,63.6,62.2,29.53,East,95,6.0,13.0,95,0.16,,SKC,0.18,VWS V14.01,2013-09-28 16:10:00,
2013-09-28 11:15:00,63.6,62.2,29.53,ESE,115,5.0,13.0,95,0.16,,SKC,0.18,VWS V14.01,2013-09-28 16:15:00,
2013-09-28 11:20:00,63.7,62.2,29.53,East,101,5.0,13.0,95,0.16,,SKC,0.18,VWS V14.01,2013-09-28 16:20:00,
2013-09-28 11:25:00,63.7,62.2,29.53,ESE,114,4.0,13.0,95,0.16,,SKC,0.18,VWS V14.01,2013-09-28 16:25:00,
2013-09-28 11:30:00,63.7,62.2,29.53,ENE,71,5.0,11.0,95,0.09,,SKC,0.18,VWS V14.01,2013-09-28 16:30:00,
2013-09-28 11:35:00,63.8,62.3,29.53,East,96,7.0,11.0,95,0.10,,SKC,0.19,VWS V14.01,2013-09-28 16:35:00,
2013-09-28 11:40:00,63.8,62.3,29.54,West,281,4.0,11.0,95,0.10,,SKC,0.19,VWS V14.01,2013-09-28 16:40:00,
2013-09-28 11:45:00,62.4,58.5,29.56,West,270,7.0,23.0,87,0.11,,SKC,0.20,VWS V14.01,2013-09-28 16:45:00,
2013-09-28 11:50:00,60.2,56.6,29.57,WSW,240,1.0,23.0,88,0.11,,SKC,0.20,VWS V14.01,2013-09-28 16:50:00,
2013-09-28 11:55:00,58.4,55.2,29.57,SW,223,4.0,23.0,89,0.11,,SKC,0.20,VWS V14.01,2013-09-28 16:55:00,
2013-09-28 12:00:00,57.2,54.6,29.58,SW,225,12.0,16.0,91,0.04,,SKC,0.20,VWS V14.01,2013-09-28 17:00:00,
2013-09-28 12:05:00,56.5,54.2,29.58,WSW,248,13.0,16.0,92,0.04,,SKC,0.20,VWS V14.01,2013-09-28 17:05:00,
2013-09-28 12:10:00,56.0,54.0,29.59,NW,313,4.0,16.0,93,0.04,,SKC,0.20,VWS V14.01,2013-09-28 17:10:00,
2013-09-28 12:15:00,55.7,53.7,29.60,SW,235,2.0,16.0,93,0.05,,SKC,0.21,VWS V14.01,2013-09-28 17:15:00,
2013-09-28 12:20:00,55.5,53.8,29.60,WSW,239,5.0,16.0,94,0.05,,SKC,0.21,VWS V14.01,2013-09-28 17:20:00,
2013-09-28 12:25:00,55.1,53.1,29.60,West,279,4.0,16.0,93,0.06,,SKC,0.22,VWS V14.01,2013-09-28 17:25:00,
2013-09-28 12:30:00,54.8,53.1,29.61,NW,310,6.0,10.0,94,0.05,,SKC,0.23,VWS V14.01,2013-09-28 17:30:00,
2013-09-28 12:35:00,54.5,52.8,29.60,WNW,287,0.0,15.0,94,0.05,,SKC,0.23,VWS V14.01,2013-09-28 17:35:00,
2013-09-28 12:40:00,54.3,52.6,29.61,NW,304,6.0,15.0,94,0.05,,SKC,0.23,VWS V14.01,2013-09-28 17:40:00,
2013-09-28 12:45:00,54.1,52.4,29.61,WSW,249,7.0,15.0,94,0.05,,SKC,0.23,VWS V14.01,2013-09-28 17:45:00,
2013-09-28 12:50:00,54.0,52.6,29.61,WSW,257,5.0,15.0,95,0.07,,SKC,0.25,VWS V14.01,2013-09-28 17:50:00,
2013-09-28 12:55:00,54.0,52.6,29.61,WSW,258,6.0,15.0,95,0.09,,SKC,0.27,VWS V14.01,2013-09-28 17:55:00,
2013-09-28 13:00:00,53.9,52.5,29.63,WNW,284,1.0,7.0,95,0.08,,SKC,0.28,VWS V14.01,2013-09-28 18:00:00,
2013-09-28 13:05:00,53.9,52.5,29.63,NNE,12,0.0,8.0,95,0.09,,SKC,0.29,VWS V14.01,2013-09-28 18:05:00,
2013-09-28 13:10:00,54.0,52.6,29.62,SW,219,12.0,12.0,95,0.10,,SKC,0.30,VWS V14.01,2013-09-28 18:10:00,
2013-09-28 13:15:00,53.9,52.5,29.61,SW,227,0.0,12.0,95,0.11,,SKC,0.31,VWS V14.01,2013-09-28 18:15:00,
2013-09-28 13:20:00,53.9,52.5,29.62,SW,234,6.0,12.0,95,0.11,,SKC,0.31,VWS V14.01,2013-09-28 18:20:00,
2013-09-28 13:25:00,53.9,52.5,29.63,WNW,302,0.0,12.0,95,0.11,,SKC,0.31,VWS V14.01,2013-09-28 18:25:00,
2013-09-28 13:30:00,53.9,52.5,29.62,WSW,246,0.0,11.0,95,0.08,,SKC,0.31,VWS V14.01,2013-09-28 18:30:00,
2013-09-28 13:35:00,53.9,52.5,29.62,West,273,7.0,11.0,95,0.08,,SKC,0.31,VWS V14.01,2013-09-28 18:35:00,
2013-09-28 13:40:00,53.9,52.2,29.62,NW,316,0.0,12.0,94,0.08,,SKC,0.31,VWS V14.01,2013-09-28 18:40:00,
2013-09-28 13:45:00,54.0,52.3,29.63,WNW,286,2.0,12.0,94,0.08,,SKC,0.31,VWS V14.01,2013-09-28 18:45:00,
2013-09-28 13:50:00,54.0,52.6,29.64,SW,219,3.0,12.0,95,0.08,,SKC,0.31,VWS V14.01,2013-09-28 18:50:00,
2013-09-28 13:55:00,54.1,52.4,29.64,West,259,3.0,12.0,94,0.08,,SKC,0.31,VWS V14.01,2013-09-28 18:55:00,
2013-09-28 14:00:00,54.3,52.9,29.65,WSW,248,0.0,5.0,95,0.03,,SKC,0.31,VWS V14.01,2013-09-28 19:00:00,
2013-09-28 14:05:00,54.4,53.0,29.65,WSW,248,0.0,6.0,95,0.03,,SKC,0.31,VWS V14.01,2013-09-28 19:05:00,
2013-09-28 14:10:00,54.6,53.2,29.65,West,281,4.0,6.0,95,0.03,,SKC,0.31,VWS V14.01,2013-09-28 19:10:00,
2013-09-28 14:15:00,54.7,53.3,29.65,WNW,303,2.0,10.0,95,0.03,,SKC,0.31,VWS V14.01,2013-09-28 19:15:00,
2013-09-28 14:20:00,54.9,53.5,29.65,West,260,2.0,10.0,95,0.03,,SKC,0.31,VWS V14.01,2013-09-28 19:20:00,
2013-09-28 14:25:00,54.9,53.2,29.66,West,264,2.0,10.0,94,0.03,,SKC,0.31,VWS V14.01,2013-09-28 19:25:00,
2013-09-28 14:30:00,55.0,53.3,29.66,WSW,248,0.0,2.0,94,0.00,,SKC,0.31,VWS V14.01,2013-09-28 19:30:00,
2013-09-28 14:36:00,55.1,53.4,29.67,WSW,242,0.0,4.0,94,0.00,,SKC,0.31,VWS V14.01,2013-09-28 19:36:00,
2013-09-28 14:41:00,55.3,53.6,29.67,West,272,2.0,10.0,94,0.00,,SKC,0.31,VWS V14.01,2013-09-28 19:41:00,
2013-09-28 14:46:00,55.6,53.9,29.67,West,281,7.0,10.0,94,0.00,,SKC,0.31,VWS V14.01,2013-09-28 19:46:00,
2013-09-28 14:51:00,55.9,53.9,29.67,WSW,249,1.0,10.0,93,0.00,,SKC,0.31,VWS V14.01,2013-09-28 19:51:00,
2013-09-28 14:56:00,56.0,53.7,29.67,West,279,2.0,10.0,92,0.00,,SKC,0.31,VWS V14.01,2013-09-28 19:56:00,
2013-09-28 15:01:00,56.1,53.8,29.68,WSW,239,0.0,4.0,92,0.00,,SKC,0.31,VWS V14.01,2013-09-28 20:01:00,
2013-09-28 15:06:00,56.3,54.0,29.68,South,186,0.0,4.0,92,0.00,,SKC,0.31,VWS V14.01,2013-09-28 20:06:00,
2013-09-28 15:11:00,56.4,53.8,29.68,WSW,251,0.0,4.0,91,0.00,,SKC,0.31,VWS V14.01,2013-09-28 20:11:00,
2013-09-28 15:16:00,56.6,54.0,29.68,West,272,0.0,6.0,91,0.00,,SKC,0.31,VWS V14.01,2013-09-28 20:16:00,
2013-09-28 15:21:00,56.8,54.2,29.68,South,178,9.0,9.0,91,0.00,,SKC,0.31,VWS V14.01,2013-09-28 20:21:00,
2013-09-28 15:26:00,57.0,54.1,29.69,NNW,331,6.0,9.0,90,0.00,,SKC,0.31,VWS V14.01,2013-09-28 20:26:00,
2013-09-28 15:31:00,57.1,54.2,29.69,NNW,334,0.0,5.0,90,0.00,,SKC,0.31,VWS V14.01,2013-09-28 20:31:00,
2013-09-28 15:36:00,57.1,53.9,29.69,WNW,288,4.0,5.0,89,0.00,,SKC,0.31,VWS V14.01,2013-09-28 20:36:00,
2013-09-28 15:41:00,57.0,53.5,29.69,West,274,2.0,8.0,88,0.00,,SKC,0.31,VWS V14.01,2013-09-28 20:41:00,
2013-09-28 15:46:00,57.0,53.2,29.69,NW,312,4.0,8.0,87,0.00,,SKC,0.31,VWS V14.01,2013-09-28 20:46:00,
2013-09-28 15:51:00,57.0,53.2,29.69,NW,325,2.0,8.0,87,0.00,,SKC,0.31,VWS V14.01,2013-09-28 20:51:00,
2013-09-28 15:56:00,57.1,53.6,29.69,WNW,298,0.0,8.0,88,0.00,,SKC,0.31,VWS V14.01,2013-09-28 20:56:00,
2013-09-28 16:01:00,57.2,52.4,29.70,NW,304,8.0,14.0,84,0.00,,SKC,0.31,VWS V14.01,2013-09-28 21:01:00,
2013-09-28 16:06:00,57.3,52.2,29.70,WNW,299,4.0,14.0,83,0.00,,SKC,0.31,VWS V14.01,2013-09-28 21:06:00,
2013-09-28 16:11:00,57.3,52.2,29.71,NW,307,0.0,14.0,83,0.00,,SKC,0.31,VWS V14.01,2013-09-28 21:11:00,
2013-09-28 16:16:00,57.1,52.0,29.71,WSW,248,3.0,14.0,83,0.00,,SKC,0.31,VWS V14.01,2013-09-28 21:16:00,
2013-09-28 16:21:00,57.2,52.1,29.71,West,270,0.0,14.0,83,0.00,,SKC,0.31,VWS V14.01,2013-09-28 21:21:00,
2013-09-28 16:26:00,57.3,52.2,29.72,West,262,4.0,14.0,83,0.00,,SKC,0.31,VWS V14.01,2013-09-28 21:26:00,
2013-09-28 16:31:00,57.3,52.2,29.72,SW,224,3.0,7.0,83,0.00,,SKC,0.31,VWS V14.01,2013-09-28 21:31:00,
2013-09-28 16:36:00,57.2,52.1,29.72,West,263,3.0,7.0,83,0.00,,SKC,0.31,VWS V14.01,2013-09-28 21:36:00,
2013-09-28 16:41:00,57.2,52.1,29.72,SSE,159,0.0,7.0,83,0.00,,SKC,0.31,VWS V14.01,2013-09-28 21:41:00,
2013-09-28 16:46:00,57.2,52.1,29.73,WNW,296,0.0,10.0,83,0.00,,SKC,0.31,VWS V14.01,2013-09-28 21:46:00,
2013-09-28 16:51:00,57.1,52.0,29.72,West,273,2.0,10.0,83,0.00,,SKC,0.31,VWS V14.01,2013-09-28 21:51:00,
2013-09-28 16:56:00,57.1,52.0,29.73,WSW,250,0.0,10.0,83,0.00,,SKC,0.31,VWS V14.01,2013-09-28 21:56:00,
2013-09-28 17:01:00,57.1,51.3,29.73,WSW,256,0.0,7.0,81,0.00,,SKC,0.31,VWS V14.01,2013-09-28 22:01:00,
2013-09-28 17:06:00,57.0,51.6,29.73,NW,308,0.0,8.0,82,0.00,,SKC,0.31,VWS V14.01,2013-09-28 22:06:00,
2013-09-28 17:11:00,57.0,51.2,29.74,SW,225,6.0,8.0,81,0.00,,SKC,0.31,VWS V14.01,2013-09-28 22:11:00,
2013-09-28 17:16:00,57.0,51.2,29.74,WSW,242,0.0,13.0,81,0.00,,SKC,0.31,VWS V14.01,2013-09-28 22:16:00,
2013-09-28 17:21:00,57.1,51.0,29.74,NW,311,0.0,13.0,80,0.00,,SKC,0.31,VWS V14.01,2013-09-28 22:21:00,
2013-09-28 17:26:00,57.1,51.0,29.74,SW,219,4.0,13.0,80,0.00,,SKC,0.31,VWS V14.01,2013-09-28 22:26:00,
2013-09-28 17:31:00,57.0,50.9,29.75,WSW,246,2.0,6.0,80,0.00,,SKC,0.31,VWS V14.01,2013-09-28 22:31:00,
2013-09-28 17:36:00,56.8,50.7,29.75,WSW,252,5.0,8.0,80,0.00,,SKC,0.31,VWS V14.01,2013-09-28 22:36:00,
2013-09-28 17:41:00,56.7,50.9,29.75,WSW,254,0.0,8.0,81,0.00,,SKC,0.31,VWS V14.01,2013-09-28 22:41:00,
2013-09-28 17:46:00,56.7,50.9,29.75,WSW,244,3.0,8.0,81,0.00,,SKC,0.31,VWS V14.01,2013-09-28 22:46:00,
2013-09-28 17:51:00,56.6,50.8,29.75,West,273,0.0,8.0,81,0.00,,SKC,0.31,VWS V14.01,2013-09-28 22:51:00,
2013-09-28 17:56:00,56.6,50.5,29.76,West,260,0.0,9.0,80,0.00,,SKC,0.31,VWS V14.01,2013-09-28 22:56:00,
2013-09-28 18:01:00,56.5,50.4,29.76,WSW,247,1.0,8.0,80,0.00,,SKC,0.31,VWS V14.01,2013-09-28 23:01:00,
2013-09-28 18:06:00,56.5,50.8,29.76,West,266,2.0,8.0,81,0.00,,SKC,0.31,VWS V14.01,2013-09-28 23:06:00,
2013-09-28 18:11:00,56.4,50.7,29.76,West,267,0.0,8.0,81,0.00,,SKC,0.31,VWS V14.01,2013-09-28 23:11:00,
2013-09-28 18:16:00,56.3,50.5,29.77,NNW,342,4.0,8.0,81,0.00,,SKC,0.31,VWS V14.01,2013-09-28 23:16:00,
2013-09-28 18:21:00,56.3,50.2,29.77,South,189,0.0,8.0,80,0.00,,SKC,0.31,VWS V14.01,2013-09-28 23:21:00,
2013-09-28 18:26:00,56.4,50.3,29.77,West,262,2.0,8.0,80,0.00,,SKC,0.31,VWS V14.01,2013-09-28 23:26:00,
2013-09-28 18:31:00,56.4,50.0,29.77,WSW,250,0.0,6.0,79,0.00,,SKC,0.31,VWS V14.01,2013-09-28 23:31:00,
2013-09-28 18:36:00,56.3,49.9,29.77,West,260,1.0,6.0,79,0.00,,SKC,0.31,VWS V14.01,2013-09-28 23:36:00,
2013-09-28 18:41:00,56.2,49.8,29.78,WSW,254,3.0,6.0,79,0.00,,SKC,0.31,VWS V14.01,2013-09-28 23:41:00,
2013-09-28 18:46:00,56.0,49.9,29.78,WSW,244,0.0,6.0,80,0.00,,SKC,0.31,VWS V14.01,2013-09-28 23:46:00,
2013-09-28 18:51:00,55.7,49.3,29.79,WSW,248,0.0,7.0,79,0.00,,SKC,0.31,VWS V14.01,2013-09-28 23:51:00,
2013-09-28 18:56:00,55.4,49.0,29.79,WSW,241,0.0,7.0,79,0.00,,SKC,0.31,VWS V14.01,2013-09-28 23:56:00,
2013-09-28 19:01:00,55.2,49.2,29.79,WSW,240,0.0,2.0,80,0.00,,SKC,0.31,VWS V14.01,2013-09-29 00:01:00,
2013-09-28 19:06:00,55.0,49.0,29.79,WSW,242,0.0,4.0,80,0.00,,SKC,0.31,VWS V14.01,2013-09-29 00:06:00,
2013-09-28 19:11:00,54.8,48.8,29.79,West,279,5.0,6.0,80,0.00,,SKC,0.31,VWS V14.01,2013-09-29 00:11:00,
2013-09-28 19:16:00,54.6,48.6,29.80,WSW,240,0.0,6.0,80,0.00,,SKC,0.31,VWS V14.01,2013-09-29 00:16:00,
2013-09-28 19:21:00,54.4,48.4,29.80,WSW,242,0.0,6.0,80,0.00,,SKC,0.31,VWS V14.01,2013-09-29 00:21:00,
2013-09-28 19:26:00,54.2,48.5,29.81,WSW,243,0.0,6.0,81,0.00,,SKC,0.31,VWS V14.01,2013-09-29 00:26:00,
2013-09-28 19:31:00,53.9,48.2,29.81,WSW,243,0.0,1.0,81,0.00,,SKC,0.31,VWS V14.01,2013-09-29 00:31:00,
2013-09-28 19:36:00,53.7,48.0,29.81,WSW,243,0.0,2.0,81,0.00,,SKC,0.31,VWS V14.01,2013-09-29 00:36:00,
2013-09-28 19:41:00,53.5,48.2,29.81,WSW,243,0.0,2.0,82,0.00,,SKC,0.31,VWS V14.01,2013-09-29 00:41:00,
2013-09-28 19:46:00,53.2,47.9,29.82,WSW,243,0.0,3.0,82,0.00,,SKC,0.31,VWS V14.01,2013-09-29 00:46:00,
2013-09-28 19:51:00,53.0,47.7,29.82,WSW,244,0.0,4.0,82,0.00,,SKC,0.31,VWS V14.01,2013-09-29 00:51:00,
2013-09-28 19:56:00,52.8,47.8,29.83,WSW,244,0.0,4.0,83,0.00,,SKC,0.31,VWS V14.01,2013-09-29 00:56:00,
2013-09-28 20:01:00,52.7,47.7,29.83,WSW,244,0.0,0.0,83,0.00,,SKC,0.31,VWS V14.01,2013-09-29 01:01:00,
2013-09-28 20:06:00,52.5,47.5,29.83,WSW,244,0.0,1.0,83,0.00,,SKC,0.31,VWS V14.01,2013-09-29 01:06:00,
2013-09-28 20:11:00,52.3,47.3,29.84,WSW,244,0.0,3.0,83,0.00,,SKC,0.31,VWS V14.01,2013-09-29 01:11:00,
2013-09-28 20:16:00,52.2,47.2,29.84,WSW,250,0.0,3.0,83,0.00,,SKC,0.31,VWS V14.01,2013-09-29 01:16:00,
2013-09-28 20:21:00,52.1,47.1,29.84,SW,234,6.0,6.0,83,0.00,,SKC,0.31,VWS V14.01,2013-09-29 01:21:00,
2013-09-28 20:26:00,52.1,47.1,29.84,WSW,246,0.0,6.0,83,0.00,,SKC,0.31,VWS V14.01,2013-09-29 01:26:00,
2013-09-28 20:31:00,51.9,46.9,29.84,WSW,246,0.0,2.0,83,0.00,,SKC,0.31,VWS V14.01,2013-09-29 01:31:00,
2013-09-28 20:36:00,51.7,47.0,29.84,WSW,246,0.0,2.0,84,0.00,,SKC,0.31,VWS V14.01,2013-09-29 01:36:00,
2013-09-28 20:41:00,51.4,46.7,29.84,WSW,246,0.0,2.0,84,0.00,,SKC,0.31,VWS V14.01,2013-09-29 01:41:00,
2013-09-28 20:46:00,51.2,46.8,29.84,WSW,246,0.0,2.0,85,0.00,,SKC,0.31,VWS V14.01,2013-09-29 01:46:00,
2013-09-28 20:52:00,50.8,46.5,29.85,WSW,246,0.0,2.0,85,0.00,,SKC,0.31,VWS V14.01,2013-09-29 01:52:00,
2013-09-28 20:56:00,50.5,46.2,29.85,WSW,246,0.0,2.0,85,0.00,,SKC,0.31,VWS V14.01,2013-09-29 01:56:00,
2013-09-28 21:02:00,50.1,46.1,29.85,WSW,246,0.0,0.0,86,0.00,,SKC,0.31,VWS V14.01,2013-09-29 02:02:00,
2013-09-28 21:06:00,49.6,45.6,29.85,WSW,246,0.0,0.0,86,0.00,,SKC,0.31,VWS V14.01,2013-09-29 02:06:00,
2013-09-28 21:12:00,49.1,45.4,29.85,WSW,246,0.0,0.0,87,0.00,,SKC,0.31,VWS V14.01,2013-09-29 02:12:00,
2013-09-28 21:16:00,48.6,45.2,29.85,WSW,246,0.0,0.0,88,0.00,,SKC,0.31,VWS V14.01,2013-09-29 02:16:00,
2013-09-28 21:21:00,48.3,44.9,29.85,WSW,246,0.0,0.0,88,0.00,,SKC,0.31,VWS V14.01,2013-09-29 02:21:00,
2013-09-28 21:26:00,47.9,44.8,29.85,WSW,246,0.0,0.0,89,0.00,,SKC,0.31,VWS V14.01,2013-09-29 02:26:00,
2013-09-28 21:32:00,47.5,44.4,29.85,WSW,246,0.0,0.0,89,0.00,,SKC,0.31,VWS V14.01,2013-09-29 02:32:00,
2013-09-28 21:37:00,47.2,44.4,29.85,WSW,246,0.0,0.0,90,0.00,,SKC,0.31,VWS V14.01,2013-09-29 02:37:00,
2013-09-28 21:42:00,46.8,44.0,29.85,WSW,246,0.0,0.0,90,0.00,,SKC,0.31,VWS V14.01,2013-09-29 02:42:00,
2013-09-28 21:47:00,46.5,44.0,29.85,WSW,246,0.0,0.0,91,0.00,,SKC,0.31,VWS V14.01,2013-09-29 02:47:00,
2013-09-28 21:52:00,46.2,43.7,29.85,WSW,246,0.0,0.0,91,0.00,,SKC,0.31,VWS V14.01,2013-09-29 02:52:00,
2013-09-28 21:57:00,46.0,43.8,29.85,WSW,246,0.0,0.0,92,0.00,,SKC,0.31,VWS V14.01,2013-09-29 02:57:00,
2013-09-28 22:01:00,45.7,43.5,29.85,WSW,246,0.0,0.0,92,0.00,,SKC,0.31,VWS V14.01,2013-09-29 03:01:00,
2013-09-28 22:06:00,45.6,43.7,29.85,WSW,246,0.0,0.0,93,0.00,,SKC,0.31,VWS V14.01,2013-09-29 03:06:00,
2013-09-28 22:12:00,45.4,43.5,29.85,WSW,246,0.0,0.0,93,0.00,,SKC,0.31,VWS V14.01,2013-09-29 03:12:00,
2013-09-28 22:17:00,45.4,43.8,29.85,WSW,246,0.0,0.0,94,0.00,,SKC,0.31,VWS V14.01,2013-09-29 03:17:00,
2013-09-28 22:22:00,45.3,43.7,29.85,WSW,246,0.0,0.0,94,0.00,,SKC,0.31,VWS V14.01,2013-09-29 03:22:00,
2013-09-28 22:27:00,45.5,44.2,29.85,WSW,246,0.0,0.0,95,0.00,,SKC,0.31,VWS V14.01,2013-09-29 03:27:00,
2013-09-28 22:32:00,45.6,44.2,29.85,WSW,246,0.0,0.0,95,0.00,,SKC,0.31,VWS V14.01,2013-09-29 03:32:00,
2013-09-28 22:37:00,45.7,44.3,29.85,WSW,246,0.0,0.0,95,0.00,,SKC,0.31,VWS V14.01,2013-09-29 03:37:00,
2013-09-28 22:42:00,45.7,44.3,29.85,WSW,246,0.0,0.0,95,0.00,,SKC,0.31,VWS V14.01,2013-09-29 03:42:00,
2013-09-28 22:47:00,45.7,44.3,29.85,WSW,246,0.0,0.0,95,0.00,,SKC,0.31,VWS V14.01,2013-09-29 03:47:00,
2013-09-28 22:52:00,45.7,44.3,29.85,WSW,246,0.0,0.0,95,0.00,,SKC,0.31,VWS V14.01,2013-09-29 03:52:00,
2013-09-28 22:57:00,45.6,44.2,29.85,WSW,246,0.0,0.0,95,0.00,,SKC,0.31,VWS V14.01,2013-09-29 03:57:00,
2013-09-28 23:01:00,45.6,44.2,29.85,WSW,246,0.0,0.0,95,0.00,,SKC,0.31,VWS V14.01,2013-09-29 04:01:00,
2013-09-28 23:06:00,45.4,44.0,29.85,WSW,246,0.0,0.0,95,0.00,,SKC,0.31,VWS V14.01,2013-09-29 04:06:00,
2013-09-28 23:11:00,45.3,44.0,29.85,WSW,246,0.0,0.0,95,0.00,,SKC,0.31,VWS V14.01,2013-09-29 04:11:00,
2013-09-28 23:16:00,45.2,43.9,29.85,WSW,246,0.0,0.0,95,0.00,,SKC,0.31,VWS V14.01,2013-09-29 04:16:00,
2013-09-28 23:21:00,45.2,43.9,29.86,WSW,246,0.0,0.0,95,0.00,,SKC,0.31,VWS V14.01,2013-09-29 04:21:00,
2013-09-28 23:26:00,45.0,43.4,29.86,WSW,246,0.0,0.0,94,0.00,,SKC,0.31,VWS V14.01,2013-09-29 04:26:00,
2013-09-28 23:31:00,44.8,43.2,29.86,WSW,246,0.0,0.0,94,0.00,,SKC,0.31,VWS V14.01,2013-09-29 04:31:00,
2013-09-28 23:36:00,44.7,43.4,29.86,WSW,246,0.0,0.0,95,0.00,,SKC,0.31,VWS V14.01,2013-09-29 04:36:00,
2013-09-28 23:41:00,44.5,43.2,29.86,WSW,246,0.0,0.0,95,0.00,,SKC,0.31,VWS V14.01,2013-09-29 04:41:00,
2013-09-28 23:46:00,44.5,43.2,29.86,WSW,246,0.0,0.0,95,0.00,,SKC,0.31,VWS V14.01,2013-09-29 04:46:00,
2013-09-28 23:51:00,44.5,43.2,29.86,WSW,246,0.0,0.0,95,0.00,,SKC,0.31,VWS V14.01,2013-09-29 04:51:00,
2013-09-28 23:56:00,44.5,43.2,29.86,WSW,246,0.0,0.0,95,0.00,,SKC,0.31,VWS V14.01,2013-09-29 04:56:00,